| time (UTC) | temp F | wind direction | speed knots | gust knots | rain 1hr in | rain 24hr in | rain mn in | humidity % | barometer mb |
| 20260509013032 | 73 | 109 | 3.5 | 9.6 | 0.00 | 0.00 | 0.00 | 26 | 1015.5 |
| 20260509011529 | 73 | 139 | 4.3 | 8.7 | 0.00 | 0.00 | 0.00 | 26 | 1015.4 |
| 20260509010035 | 74 | 98 | 4.3 | 10.4 | 0.00 | 0.00 | 0.00 | 25 | 1015.2 |
| 20260509004527 | 74 | 114 | 5.2 | 14.8 | 0.00 | 0.00 | 0.00 | 25 | 1015.1 |
| 20260509003025 | 74 | 98 | 6.1 | 12.2 | 0.00 | 0.00 | 0.00 | 23 | 1015.0 |
| 20260509001524 | 74 | 77 | 4.3 | 13.0 | 0.00 | 0.00 | 0.00 | 24 | 1015.0 |
| 20260509000023 | 75 | 117 | 7.8 | 13.0 | 0.00 | 0.00 | 0.00 | 23 | 1015.0 |
| 20260508234522 | 75 | 118 | 6.1 | 13.9 | 0.00 | 0.00 | 0.00 | 24 | 1015.0 |
| 20260508233022 | 75 | 96 | 5.2 | 11.3 | 0.00 | 0.00 | 0.00 | 24 | 1014.9 |
| 20260508231521 | 76 | 68 | 4.3 | 8.7 | 0.00 | 0.00 | 0.00 | 23 | 1014.9 |
| 20260508230023 | 75 | 72 | 7.0 | 12.2 | 0.00 | 0.00 | 0.00 | 21 | 1014.9 |
| 20260508224518 | 75 | 61 | 6.1 | 13.9 | 0.00 | 0.00 | 0.00 | 22 | 1014.8 |
| 20260508223033 | 75 | 135 | 7.8 | 16.5 | 0.00 | 0.00 | 0.00 | 21 | 1015.0 |
| 20260508221516 | 75 | 77 | 5.2 | 13.0 | 0.00 | 0.00 | 0.00 | 21 | 1014.9 |
| 20260508220020 | 75 | 126 | 7.0 | 12.2 | 0.00 | 0.00 | 0.00 | 19 | 1014.8 |
| 20260508214513 | 74 | 114 | 7.0 | 14.8 | 0.00 | 0.00 | 0.00 | 19 | 1014.9 |
| 20260508213015 | 74 | 102 | 6.1 | 12.2 | 0.00 | 0.00 | 0.00 | 20 | 1014.9 |
| 20260508211511 | 73 | 113 | 7.0 | 13.9 | 0.00 | 0.00 | 0.00 | 22 | 1014.9 |
| 20260508210012 | 72 | 105 | 7.8 | 15.6 | 0.00 | 0.00 | 0.00 | 20 | 1014.8 |
| 20260508204519 | 73 | 103 | 7.8 | 17.4 | 0.00 | 0.00 | 0.00 | 21 | 1014.6 |
| 20260508203008 | 73 | 86 | 8.7 | 20.0 | 0.00 | 0.00 | 0.00 | 21 | 1014.5 |
| 20260508201506 | 74 | 155 | 5.2 | 13.0 | 0.00 | 0.00 | 0.00 | 20 | 1014.3 |
| 20260508200005 | 73 | 38 | 7.8 | 16.5 | 0.00 | 0.00 | 0.00 | 18 | 1014.3 |
| 20260508194502 | 72 | 119 | 7.8 | 17.4 | 0.00 | 0.00 | 0.00 | 16 | 1014.7 |
| 20260508193112 | 73 | 87 | 5.2 | 12.2 | 0.00 | 0.00 | 0.00 | 16 | 1014.7 |
| 20260508191602 | 72 | 116 | 0.9 | 4.3 | 0.00 | 0.00 | 0.00 | 23 | 1014.7 |
| 20260508190057 | 72 | 95 | 0.9 | 5.2 | 0.00 | 0.00 | 0.00 | 23 | 1014.8 |
| 20260508184607 | 70 | 148 | 0.9 | 5.2 | 0.00 | 0.00 | 0.00 | 21 | 1014.6 |
| 20260508183054 | 70 | 106 | 0.0 | 1.7 | 0.00 | 0.00 | 0.00 | 26 | 1014.4 |
| 20260508181559 | 70 | 64 | 0.0 | 2.6 | 0.00 | 0.00 | 0.00 | 28 | 1014.4 |
| 20260508180048 | 69 | 270 | 0.9 | 3.5 | 0.00 | 0.00 | 0.00 | 30 | 1014.5 |
| 20260508174543 | 67 | 68 | 0.0 | 3.5 | 0.00 | 0.00 | 0.00 | 34 | 1014.6 |
| 20260508173040 | 66 | 239 | 0.0 | 4.3 | 0.00 | 0.00 | 0.00 | 36 | 1014.7 |
| 20260508171543 | 65 | 202 | 0.0 | 1.7 | 0.00 | 0.00 | 0.00 | 40 | 1014.8 |
| 20260508170038 | 64 | 53 | 0.0 | 1.7 | 0.00 | 0.00 | 0.00 | 41 | 1014.9 |
| 20260508164533 | 63 | 52 | 0.9 | 2.6 | 0.00 | 0.00 | 0.00 | 42 | 1014.9 |
| 20260508163033 | 61 | 55 | 0.0 | 1.7 | 0.00 | 0.00 | 0.00 | 45 | 1014.9 |
| 20260508161528 | 59 | 94 | 0.9 | 4.3 | 0.00 | 0.00 | 0.00 | 48 | 1015.0 |
| 20260508160049 | 56 | 98 | 0.0 | 1.7 | 0.00 | 0.00 | 0.00 | 54 | 1014.8 |
| 20260508154525 | 55 | 109 | 0.0 | 2.6 | 0.00 | 0.00 | 0.00 | 61 | 1014.8 |
| 20260508153028 | 54 | 67 | 0.0 | 3.5 | 0.00 | 0.00 | 0.00 | 64 | 1014.7 |
| 20260508151524 | 53 | 97 | 0.0 | 1.7 | 0.00 | 0.00 | 0.00 | 62 | 1014.6 |
| 20260508150032 | 52 | 108 | 0.0 | 0.9 | 0.00 | 0.00 | 0.00 | 60 | 1014.6 |
| 20260508144523 | 51 | 108 | 0.0 | 1.7 | 0.00 | 0.00 | 0.00 | 61 | 1014.6 |
| 20260508143027 | 49 | 96 | 0.0 | 1.7 | 0.00 | 0.00 | 0.00 | 65 | 1014.6 |
| 20260508141520 | 48 | 86 | 0.9 | 3.5 | 0.00 | 0.00 | 0.00 | 67 | 1014.5 |
| 20260508140019 | 48 | 77 | 0.0 | 2.6 | 0.00 | 0.00 | 0.00 | 66 | 1014.4 |
| 20260508134528 | 48 | 181 | 0.0 | 1.7 | 0.00 | 0.00 | 0.00 | 64 | 1014.2 |
| 20260508133018 | 47 | 103 | 0.0 | 0.9 | 0.00 | 0.00 | 0.00 | 66 | 1014.3 |
| 20260508131516 | 47 | 102 | 0.0 | 0.9 | 0.00 | 0.00 | 0.00 | 68 | 1014.1 |
| 20260508130017 | 46 | 98 | 0.0 | 2.6 | 0.00 | 0.00 | 0.00 | 67 | 1014.0 |
| 20260508124512 | 46 | 93 | 0.9 | 2.6 | 0.00 | 0.00 | 0.00 | 68 | 1013.9 |
| 20260508123012 | 45 | 84 | 0.0 | 0.9 | 0.00 | 0.00 | 0.00 | 69 | 1013.8 |
| 20260508121526 | 46 | 85 | 0.0 | 0.9 | 0.00 | 0.00 | 0.00 | 67 | 1013.9 |
| 20260508120008 | 46 | 84 | 0.0 | 0.9 | 0.00 | 0.00 | 0.00 | 70 | 1013.8 |
| 20260508114507 | 46 | 85 | 0.0 | 0.9 | 0.00 | 0.00 | 0.00 | 71 | 1013.9 |
| 20260508113004 | 46 | 32 | 0.9 | 3.5 | 0.00 | 0.00 | 0.00 | 69 | 1013.8 |
| 20260508111501 | 47 | 75 | 0.0 | 0.0 | 0.00 | 0.00 | 0.00 | 65 | 1013.7 |
| 20260508110103 | 48 | 75 | 0.0 | 0.0 | 0.00 | 0.00 | 0.00 | 64 | 1013.7 |
| 20260508104554 | 49 | 75 | 0.0 | 1.7 | 0.00 | 0.00 | 0.00 | 65 | 1013.7 |
| 20260508103056 | 52 | 104 | 0.0 | 0.9 | 0.00 | 0.00 | 0.00 | 64 | 1013.5 |
| 20260508101552 | 52 | 98 | 0.0 | 1.7 | 0.00 | 0.00 | 0.00 | 65 | 1013.4 |
| 20260508100050 | 51 | 101 | 0.0 | 4.3 | 0.00 | 0.00 | 0.00 | 65 | 1013.5 |
| 20260508094603 | 51 | 45 | 0.9 | 2.6 | 0.00 | 0.00 | 0.00 | 64 | 1013.4 |
| 20260508093047 | 52 | 86 | 0.0 | 0.9 | 0.00 | 0.00 | 0.00 | 63 | 1013.4 |
| 20260508091545 | 53 | 50 | 0.0 | 0.9 | 0.00 | 0.00 | 0.00 | 63 | 1013.4 |
| 20260508090043 | 53 | 50 | 0.0 | 2.6 | 0.00 | 0.00 | 0.00 | 63 | 1013.5 |
| 20260508084541 | 53 | 53 | 0.0 | 0.9 | 0.00 | 0.00 | 0.00 | 63 | 1013.4 |
| 20260508083114 | 56 | 54 | 0.0 | 1.7 | 0.00 | 0.00 | 0.00 | 58 | 1013.5 |
| 20260508081534 | 59 | 102 | 0.0 | 3.5 | 0.00 | 0.00 | 0.00 | 55 | 1013.4 |
| 20260508080032 | 59 | 104 | 0.9 | 3.5 | 0.00 | 0.00 | 0.00 | 55 | 1013.4 |
| 20260508074533 | 60 | 145 | 0.0 | 2.6 | 0.00 | 0.00 | 0.00 | 54 | 1013.4 |
| 20260508073029 | 61 | 150 | 0.0 | 5.2 | 0.00 | 0.00 | 0.00 | 52 | 1013.4 |
| 20260508071531 | 61 | 206 | 0.9 | 3.5 | 0.00 | 0.00 | 0.00 | 53 | 1013.3 |
| 20260508070023 | 61 | 120 | 0.0 | 3.5 | 0.00 | 0.00 | 0.00 | 54 | 1013.2 |
| 20260508064540 | 61 | 161 | 0.9 | 2.6 | 0.00 | 0.00 | 0.00 | 53 | 1013.2 |
| 20260508063022 | 62 | 163 | 0.0 | 5.2 | 0.00 | 0.00 | 0.00 | 52 | 1013.2 |
| 20260508061524 | 62 | 133 | 0.0 | 3.5 | 0.00 | 0.00 | 0.00 | 51 | 1013.2 |
| 20260508060023 | 63 | 107 | 0.9 | 5.2 | 0.00 | 0.00 | 0.00 | 50 | 1013.3 |
| 20260508054521 | 64 | 96 | 3.5 | 7.0 | 0.00 | 0.00 | 0.00 | 50 | 1013.1 |
| 20260508053020 | 64 | 89 | 1.7 | 7.0 | 0.00 | 0.00 | 0.00 | 49 | 1013.2 |
| 20260508051519 | 65 | 114 | 1.7 | 4.3 | 0.00 | 0.00 | 0.00 | 48 | 1013.1 |
| 20260508050021 | 65 | 98 | 0.0 | 4.3 | 0.00 | 0.00 | 0.00 | 47 | 1013.0 |
| 20260508044518 | 66 | 98 | 0.9 | 4.3 | 0.00 | 0.00 | 0.00 | 45 | 1012.8 |
| 20260508043017 | 67 | 146 | 0.0 | 5.2 | 0.00 | 0.00 | 0.00 | 42 | 1012.9 |
| 20260508041517 | 68 | 167 | 0.0 | 3.5 | 0.00 | 0.00 | 0.00 | 39 | 1012.8 |
| 20260508040016 | 70 | 142 | 0.0 | 3.5 | 0.00 | 0.00 | 0.00 | 34 | 1012.6 |
| 20260508034516 | 69 | 124 | 0.0 | 2.6 | 0.00 | 0.00 | 0.00 | 35 | 1012.4 |
| 20260508033018 | 70 | 71 | 0.0 | 1.7 | 0.00 | 0.00 | 0.00 | 35 | 1012.2 |
| 20260508031517 | 71 | 70 | 0.0 | 0.9 | 0.00 | 0.00 | 0.00 | 33 | 1011.9 |
| 20260508030015 | 73 | 71 | 0.0 | 0.9 | 0.00 | 0.00 | 0.00 | 31 | 1011.7 |
| 20260508024523 | 74 | 72 | 0.0 | 1.7 | 0.00 | 0.00 | 0.00 | 29 | 1011.8 |
| 20260508023015 | 76 | 73 | 0.0 | 1.7 | 0.00 | 0.00 | 0.00 | 28 | 1011.7 |
| 20260508021515 | 76 | 65 | 0.0 | 0.9 | 0.00 | 0.00 | 0.00 | 27 | 1011.7 |
| 20260508020015 | 76 | 58 | 0.0 | 2.6 | 0.00 | 0.00 | 0.00 | 25 | 1011.8 |
| 20260508014511 | 77 | 61 | 0.9 | 3.5 | 0.00 | 0.00 | 0.00 | 26 | 1011.8 |